Time,TemperatureF,DewpointF,PressureIn,WindDirection,WindDirectionDegrees,WindSpeedMPH,WindSpeedGustMPH,Humidity,HourlyPrecipIn,Conditions,Clouds,dailyrainin,SoftwareType,DateUTC
2013-01-07 00:02:00,43.0,42.3,30.17,NNW,332,1.0,1.0,97,0.00,,,0.04,meteohub,2013-01-07 08:02:00,
2013-01-07 00:07:00,42.6,41.5,30.17,North,354,0.0,1.0,96,0.00,,,0.00,meteohub,2013-01-07 08:07:00,
2013-01-07 00:12:00,42.4,41.4,30.17,North,353,0.0,1.0,96,0.00,,,0.00,meteohub,2013-01-07 08:12:00,
2013-01-07 00:17:00,42.3,41.2,30.17,North,352,0.0,1.0,96,0.00,,,0.00,meteohub,2013-01-07 08:17:00,
2013-01-07 00:22:00,42.3,41.2,30.17,North,353,1.0,1.0,96,0.00,,,0.00,meteohub,2013-01-07 08:22:00,
2013-01-07 00:27:00,42.3,41.2,30.17,North,352,0.0,1.0,96,0.00,,,0.00,meteohub,2013-01-07 08:27:00,
2013-01-07 00:32:00,42.3,41.2,30.17,North,353,0.0,1.0,96,0.00,,,0.00,meteohub,2013-01-07 08:32:00,
2013-01-07 00:37:00,42.3,41.5,30.17,North,352,0.0,1.0,97,0.00,,,0.00,meteohub,2013-01-07 08:37:00,
2013-01-07 00:42:00,42.3,41.5,30.17,North,352,0.0,1.0,97,0.00,,,0.00,meteohub,2013-01-07 08:42:00,
2013-01-07 00:47:00,42.4,41.7,30.17,NNW,338,0.0,1.0,97,0.00,,,0.00,meteohub,2013-01-07 08:47:00,
2013-01-07 00:52:00,42.3,41.5,30.17,NNW,338,0.0,1.0,97,0.00,,,0.00,meteohub,2013-01-07 08:52:00,
2013-01-07 00:57:00,42.4,41.7,30.17,NNW,338,0.0,1.0,97,0.00,,,0.00,meteohub,2013-01-07 08:57:00,
2013-01-07 01:02:00,42.3,41.5,30.17,NNW,339,0.0,1.0,97,0.00,,,0.00,meteohub,2013-01-07 09:02:00,
2013-01-07 01:07:00,41.9,40.8,30.17,NNW,338,0.0,0.0,96,0.00,,,0.00,meteohub,2013-01-07 09:07:00,
2013-01-07 01:12:00,41.9,41.2,30.17,NNW,338,0.0,0.0,97,0.00,,,0.00,meteohub,2013-01-07 09:12:00,
2013-01-07 01:17:00,41.5,40.5,30.17,NNW,338,0.0,0.0,96,0.00,,,0.00,meteohub,2013-01-07 09:17:00,
2013-01-07 01:22:00,41.5,40.8,30.17,NNW,338,0.0,0.0,97,0.00,,,0.00,meteohub,2013-01-07 09:22:00,
2013-01-07 01:27:00,42.1,41.4,30.17,NNW,338,0.0,0.0,97,0.00,,,0.00,meteohub,2013-01-07 09:27:00,
2013-01-07 01:32:00,42.1,41.4,30.17,NNW,339,0.0,1.0,97,0.00,,,0.00,meteohub,2013-01-07 09:32:00,
2013-01-07 01:37:00,41.7,41.0,30.17,NNW,338,0.0,1.0,97,0.00,,,0.00,meteohub,2013-01-07 09:37:00,
2013-01-07 01:42:00,42.4,41.7,30.17,NNW,338,0.0,1.0,97,0.00,,,0.00,meteohub,2013-01-07 09:42:00,
2013-01-07 01:48:00,42.4,41.7,30.17,NW,316,0.0,0.0,97,0.00,,,0.00,meteohub,2013-01-07 09:48:00,
2013-01-07 01:53:00,42.4,41.7,30.17,NW,316,0.0,1.0,97,0.00,,,0.00,meteohub,2013-01-07 09:53:00,
2013-01-07 01:58:00,42.1,41.4,30.17,NW,316,0.0,1.0,97,0.00,,,0.00,meteohub,2013-01-07 09:58:00,
2013-01-07 02:03:00,41.7,41.0,30.16,NW,316,0.0,1.0,97,0.00,,,0.00,meteohub,2013-01-07 10:03:00,
2013-01-07 02:08:00,42.1,41.4,30.16,WNW,295,0.0,0.0,97,0.00,,,0.00,meteohub,2013-01-07 10:08:00,
2013-01-07 02:13:00,42.3,41.5,30.17,NNW,346,1.0,1.0,97,0.00,,,0.00,meteohub,2013-01-07 10:13:00,
2013-01-07 02:18:00,42.1,41.4,30.17,North,352,1.0,2.0,97,0.00,,,0.00,meteohub,2013-01-07 10:18:00,
2013-01-07 02:23:00,42.1,41.4,30.17,NNW,342,0.0,2.0,97,0.00,,,0.00,meteohub,2013-01-07 10:23:00,
2013-01-07 02:29:00,41.9,41.2,30.18,NNW,333,1.0,2.0,97,0.00,,,0.00,meteohub,2013-01-07 10:29:00,
2013-01-07 02:34:00,41.7,41.0,30.19,NNW,336,0.0,1.0,97,0.00,,,0.00,meteohub,2013-01-07 10:34:00,
2013-01-07 02:39:00,41.9,41.2,30.19,NNW,336,0.0,1.0,97,0.00,,,0.00,meteohub,2013-01-07 10:39:00,
2013-01-07 02:44:00,41.7,41.0,30.19,NNW,336,0.0,1.0,97,0.00,,,0.00,meteohub,2013-01-07 10:44:00,
2013-01-07 02:49:00,41.5,40.8,30.19,WNW,291,0.0,1.0,97,0.00,,,0.00,meteohub,2013-01-07 10:49:00,
2013-01-07 02:54:00,41.7,41.0,30.19,WNW,290,0.0,1.0,97,0.00,,,0.00,meteohub,2013-01-07 10:54:00,
2013-01-07 02:59:00,42.3,41.5,30.20,NNW,338,1.0,1.0,97,0.00,,,0.00,meteohub,2013-01-07 10:59:00,
2013-01-07 03:04:00,42.4,41.7,30.20,WNW,293,0.0,1.0,97,0.00,,,0.00,meteohub,2013-01-07 11:04:00,
2013-01-07 03:10:00,42.6,41.9,30.19,WNW,297,0.0,1.0,97,0.00,,,0.00,meteohub,2013-01-07 11:10:00,
2013-01-07 03:15:00,42.4,41.7,30.19,WNW,297,0.0,1.0,97,0.00,,,0.00,meteohub,2013-01-07 11:15:00,
2013-01-07 03:20:00,42.3,41.5,30.19,WNW,296,0.0,1.0,97,0.00,,,0.00,meteohub,2013-01-07 11:20:00,
2013-01-07 03:25:00,41.7,41.0,30.19,WNW,297,0.0,0.0,97,0.00,,,0.00,meteohub,2013-01-07 11:25:00,
2013-01-07 03:30:00,41.5,40.8,30.18,WNW,297,0.0,0.0,97,0.00,,,0.00,meteohub,2013-01-07 11:30:00,
2013-01-07 03:35:00,41.9,41.2,30.18,WNW,295,0.0,1.0,97,0.00,,,0.00,meteohub,2013-01-07 11:35:00,
2013-01-07 03:40:00,42.3,41.5,30.18,WNW,291,0.0,1.0,97,0.00,,,0.00,meteohub,2013-01-07 11:40:00,
2013-01-07 03:45:00,42.3,41.5,30.19,NW,319,1.0,1.0,97,0.00,,,0.00,meteohub,2013-01-07 11:45:00,
2013-01-07 03:50:00,42.1,41.4,30.19,NNW,342,1.0,1.0,97,0.00,,,0.00,meteohub,2013-01-07 11:50:00,
2013-01-07 03:56:00,42.1,41.4,30.18,NNW,342,0.0,2.0,97,0.00,,,0.00,meteohub,2013-01-07 11:56:00,
2013-01-07 04:01:00,42.1,41.4,30.18,NNW,340,0.0,2.0,97,0.00,,,0.00,meteohub,2013-01-07 12:01:00,
2013-01-07 04:06:00,42.1,41.4,30.18,NW,321,0.0,1.0,97,0.00,,,0.00,meteohub,2013-01-07 12:06:00,
2013-01-07 04:11:00,42.3,41.5,30.18,NW,321,0.0,1.0,97,0.00,,,0.00,meteohub,2013-01-07 12:11:00,
2013-01-07 04:16:00,42.3,41.5,30.18,NW,321,0.0,1.0,97,0.00,,,0.00,meteohub,2013-01-07 12:16:00,
2013-01-07 04:21:00,42.1,41.4,30.18,NW,320,0.0,1.0,97,0.00,,,0.00,meteohub,2013-01-07 12:21:00,
2013-01-07 04:27:00,41.9,41.2,30.18,North,349,1.0,1.0,97,0.00,,,0.00,meteohub,2013-01-07 12:27:00,
2013-01-07 04:32:00,41.7,41.0,30.18,NNW,336,0.0,2.0,97,0.00,,,0.00,meteohub,2013-01-07 12:32:00,
2013-01-07 04:37:00,42.1,41.4,30.18,North,349,1.0,2.0,97,0.00,,,0.00,meteohub,2013-01-07 12:37:00,
2013-01-07 04:42:00,41.9,41.2,30.19,NNW,334,0.0,2.0,97,0.00,,,0.00,meteohub,2013-01-07 12:42:00,
2013-01-07 04:47:00,41.7,41.0,30.19,NNW,334,0.0,2.0,97,0.00,,,0.00,meteohub,2013-01-07 12:47:00,
2013-01-07 04:52:00,41.5,40.8,30.19,NNW,334,0.0,2.0,97,0.00,,,0.00,meteohub,2013-01-07 12:52:00,
2013-01-07 04:57:00,41.7,41.0,30.19,NNW,334,0.0,1.0,97,0.00,,,0.00,meteohub,2013-01-07 12:57:00,
2013-01-07 05:02:00,42.1,41.4,30.19,West,277,0.0,1.0,97,0.00,,,0.00,meteohub,2013-01-07 13:02:00,
2013-01-07 05:07:00,42.3,41.5,30.19,WNW,300,0.0,1.0,97,0.00,,,0.00,meteohub,2013-01-07 13:07:00,
2013-01-07 05:12:00,42.8,42.3,30.18,NNW,328,0.0,1.0,98,0.00,,,0.00,meteohub,2013-01-07 13:12:00,
2013-01-07 05:17:00,42.4,41.7,30.17,SW,233,0.0,1.0,97,0.00,,,0.00,meteohub,2013-01-07 13:17:00,
2013-01-07 05:22:00,42.6,42.1,30.17,SSW,203,0.0,1.0,98,0.00,,,0.00,meteohub,2013-01-07 13:22:00,
2013-01-07 05:27:00,42.3,41.5,30.17,SSW,203,0.0,1.0,97,0.00,,,0.00,meteohub,2013-01-07 13:27:00,
2013-01-07 05:32:00,42.3,41.5,30.18,NNW,347,1.0,1.0,97,0.00,,,0.00,meteohub,2013-01-07 13:32:00,
2013-01-07 05:37:00,42.1,41.4,30.18,NNW,340,0.0,1.0,97,0.00,,,0.00,meteohub,2013-01-07 13:37:00,
2013-01-07 05:42:00,41.9,41.2,30.18,NNW,340,0.0,1.0,97,0.00,,,0.00,meteohub,2013-01-07 13:42:00,
2013-01-07 05:47:00,41.7,41.0,30.18,NNW,340,0.0,1.0,97,0.00,,,0.00,meteohub,2013-01-07 13:47:00,
2013-01-07 05:52:00,41.7,41.0,30.17,NNW,340,0.0,1.0,97,0.00,,,0.00,meteohub,2013-01-07 13:52:00,
2013-01-07 05:57:00,41.7,41.0,30.18,NNW,340,0.0,0.0,97,0.00,,,0.00,meteohub,2013-01-07 13:57:00,
2013-01-07 06:02:00,41.5,40.8,30.18,NNW,340,0.0,0.0,97,0.00,,,0.00,meteohub,2013-01-07 14:02:00,
2013-01-07 06:07:00,41.5,40.8,30.19,NNW,340,1.0,1.0,97,0.00,,,0.00,meteohub,2013-01-07 14:07:00,
2013-01-07 06:12:00,41.9,41.2,30.19,NNW,340,0.0,1.0,97,0.00,,,0.00,meteohub,2013-01-07 14:12:00,
2013-01-07 06:17:00,41.9,41.2,30.19,NNW,340,0.0,1.0,97,0.00,,,0.00,meteohub,2013-01-07 14:17:00,
2013-01-07 06:22:00,41.7,41.0,30.19,NNW,340,0.0,1.0,97,0.00,,,0.00,meteohub,2013-01-07 14:22:00,
2013-01-07 06:27:00,42.1,41.4,30.19,NNW,340,0.0,1.0,97,0.00,,,0.00,meteohub,2013-01-07 14:27:00,
2013-01-07 06:32:00,42.3,41.7,30.19,NNW,340,0.0,1.0,98,0.00,,,0.00,meteohub,2013-01-07 14:32:00,
2013-01-07 06:37:00,41.9,41.2,30.19,NW,309,0.0,1.0,97,0.00,,,0.00,meteohub,2013-01-07 14:37:00,
2013-01-07 06:42:00,41.7,41.0,30.20,NW,309,0.0,1.0,97,0.00,,,0.00,meteohub,2013-01-07 14:42:00,
2013-01-07 06:47:00,41.5,40.8,30.20,NW,309,0.0,1.0,97,0.00,,,0.00,meteohub,2013-01-07 14:47:00,
2013-01-07 06:52:00,41.5,40.8,30.20,NW,308,0.0,0.0,97,0.00,,,0.00,meteohub,2013-01-07 14:52:00,
2013-01-07 06:57:00,41.7,41.0,30.21,NW,308,0.0,0.0,97,0.00,,,0.00,meteohub,2013-01-07 14:57:00,
2013-01-07 07:02:00,42.1,41.5,30.20,NW,308,0.0,0.0,98,0.00,,,0.00,meteohub,2013-01-07 15:02:00,
2013-01-07 07:07:00,42.1,41.4,30.20,NW,308,0.0,0.0,97,0.00,,,0.00,meteohub,2013-01-07 15:07:00,
2013-01-07 07:12:00,42.4,41.9,30.20,SW,233,0.0,1.0,98,0.00,,,0.00,meteohub,2013-01-07 15:12:00,
2013-01-07 07:17:00,42.3,41.7,30.20,West,278,0.0,1.0,98,0.00,,,0.00,meteohub,2013-01-07 15:17:00,
2013-01-07 07:22:00,42.6,42.1,30.20,SSE,163,1.0,1.0,98,0.00,,,0.00,meteohub,2013-01-07 15:22:00,
2013-01-07 07:27:00,43.9,43.3,30.20,SSW,198,2.0,4.0,98,0.00,,,0.00,meteohub,2013-01-07 15:27:00,
2013-01-07 07:32:00,44.1,43.5,30.20,South,176,2.0,5.0,98,0.00,,,0.00,meteohub,2013-01-07 15:32:00,
2013-01-07 07:37:00,44.4,43.9,30.21,NNW,348,1.0,5.0,98,0.00,,,0.00,meteohub,2013-01-07 15:37:00,
2013-01-07 07:42:00,43.5,43.0,30.22,NNW,347,0.0,5.0,98,0.00,,,0.00,meteohub,2013-01-07 15:42:00,
2013-01-07 07:47:00,43.5,43.0,30.21,NNW,338,0.0,5.0,98,0.00,,,0.00,meteohub,2013-01-07 15:47:00,
2013-01-07 07:52:00,43.5,43.0,30.20,NNW,338,0.0,2.0,98,0.00,,,0.00,meteohub,2013-01-07 15:52:00,
2013-01-07 07:57:00,43.5,43.0,30.21,North,353,0.0,1.0,98,0.00,,,0.00,meteohub,2013-01-07 15:57:00,
2013-01-07 08:03:00,43.3,42.8,30.21,NNW,342,0.0,2.0,98,0.00,,,0.00,meteohub,2013-01-07 16:03:00,
2013-01-07 08:08:00,43.3,42.6,30.21,NNW,342,0.0,2.0,97,0.00,,,0.00,meteohub,2013-01-07 16:08:00,
2013-01-07 08:13:00,43.3,42.6,30.21,NNW,342,0.0,2.0,97,0.00,,,0.00,meteohub,2013-01-07 16:13:00,
2013-01-07 08:18:00,43.5,42.8,30.20,NNW,342,0.0,0.0,97,0.00,,,0.00,meteohub,2013-01-07 16:18:00,
2013-01-07 08:23:00,44.2,43.7,30.19,SW,232,2.0,2.0,98,0.00,,,0.00,meteohub,2013-01-07 16:23:00,
2013-01-07 08:29:00,44.8,44.2,30.19,NW,312,0.0,4.0,98,0.00,,,0.00,meteohub,2013-01-07 16:29:00,
2013-01-07 08:34:00,45.1,44.6,30.21,SW,214,0.0,4.0,98,0.00,,,0.00,meteohub,2013-01-07 16:34:00,
2013-01-07 08:39:00,45.1,44.6,30.21,South,190,0.0,4.0,98,0.00,,,0.00,meteohub,2013-01-07 16:39:00,
2013-01-07 08:44:00,45.5,45.0,30.21,SSE,168,0.0,4.0,98,0.00,,,0.00,meteohub,2013-01-07 16:44:00,
2013-01-07 08:49:00,45.3,44.8,30.22,NNW,348,1.0,4.0,98,0.00,,,0.00,meteohub,2013-01-07 16:49:00,
2013-01-07 08:54:00,45.5,44.8,30.22,NNE,33,0.0,4.0,97,0.00,,,0.00,meteohub,2013-01-07 16:54:00,
2013-01-07 08:59:00,45.7,45.0,30.23,NNW,338,0.0,4.0,97,0.00,,,0.00,meteohub,2013-01-07 16:59:00,
2013-01-07 09:04:00,45.7,45.0,30.24,NNW,338,0.0,2.0,97,0.00,,,0.00,meteohub,2013-01-07 17:04:00,
2013-01-07 09:10:00,45.9,45.1,30.25,NNW,338,0.0,2.0,97,0.00,,,0.00,meteohub,2013-01-07 17:10:00,
2013-01-07 09:15:00,46.0,45.3,30.24,NNW,338,0.0,1.0,97,0.00,,,0.00,meteohub,2013-01-07 17:15:00,
2013-01-07 09:20:00,46.2,45.5,30.24,ESE,111,0.0,1.0,97,0.00,,,0.00,meteohub,2013-01-07 17:20:00,
2013-01-07 09:25:00,46.6,45.5,30.23,SSE,155,1.0,2.0,96,0.00,,,0.00,meteohub,2013-01-07 17:25:00,
2013-01-07 09:30:00,46.9,45.9,30.23,SE,143,1.0,3.0,96,0.00,,,0.00,meteohub,2013-01-07 17:30:00,
2013-01-07 09:36:00,47.1,45.7,30.23,South,173,2.0,4.0,95,0.00,,,0.00,meteohub,2013-01-07 17:36:00,
2013-01-07 09:41:00,47.5,45.9,30.23,SW,219,0.0,4.0,94,0.00,,,0.00,meteohub,2013-01-07 17:41:00,
2013-01-07 09:46:00,47.8,46.4,30.23,South,190,1.0,4.0,95,0.00,,,0.00,meteohub,2013-01-07 17:46:00,
2013-01-07 09:51:00,48.4,46.8,30.23,SSE,158,3.0,4.0,94,0.00,,,0.00,meteohub,2013-01-07 17:51:00,
2013-01-07 09:56:00,48.7,46.8,30.23,SSW,203,0.0,4.0,93,0.00,,,0.00,meteohub,2013-01-07 17:56:00,
2013-01-07 10:01:00,48.9,46.8,30.24,South,169,4.0,4.0,92,0.00,,,0.00,meteohub,2013-01-07 18:01:00,
2013-01-07 10:07:00,49.1,46.6,30.25,SSE,159,2.0,5.0,91,0.00,,,0.00,meteohub,2013-01-07 18:07:00,
2013-01-07 10:12:00,49.3,46.8,30.25,ESE,112,0.0,5.0,91,0.00,,,0.00,meteohub,2013-01-07 18:12:00,
2013-01-07 10:17:00,49.8,46.9,30.25,SSE,167,0.0,5.0,90,0.00,,,0.00,meteohub,2013-01-07 18:17:00,
2013-01-07 10:22:00,50.4,47.8,30.25,SW,224,1.0,3.0,91,0.00,,,0.00,meteohub,2013-01-07 18:22:00,
2013-01-07 10:27:00,50.5,47.5,30.25,WSW,242,0.0,2.0,89,0.00,,,0.00,meteohub,2013-01-07 18:27:00,
2013-01-07 10:32:00,50.4,47.3,30.26,NNW,333,0.0,2.0,89,0.00,,,0.00,meteohub,2013-01-07 18:32:00,
2013-01-07 10:37:00,50.4,47.5,30.26,ENE,65,0.0,2.0,90,0.00,,,0.00,meteohub,2013-01-07 18:37:00,
2013-01-07 10:42:00,50.2,47.3,30.26,NNW,335,0.0,2.0,90,0.00,,,0.00,meteohub,2013-01-07 18:42:00,
2013-01-07 10:47:00,50.2,47.7,30.25,NNW,338,0.0,3.0,91,0.00,,,0.00,meteohub,2013-01-07 18:47:00,
2013-01-07 10:52:00,50.4,47.5,30.24,NNW,347,0.0,3.0,90,0.00,,,0.00,meteohub,2013-01-07 18:52:00,
2013-01-07 10:57:00,50.7,47.8,30.24,NNE,25,0.0,3.0,90,0.00,,,0.00,meteohub,2013-01-07 18:57:00,
2013-01-07 11:02:00,51.4,48.4,30.23,NNE,19,1.0,1.0,89,0.00,,,0.00,meteohub,2013-01-07 19:02:00,
2013-01-07 11:07:00,51.6,48.2,30.22,North,1,0.0,3.0,88,0.00,,,0.00,meteohub,2013-01-07 19:07:00,
2013-01-07 11:12:00,52.2,48.7,30.22,NNW,348,1.0,3.0,88,0.00,,,0.00,meteohub,2013-01-07 19:12:00,
2013-01-07 11:17:00,52.7,48.6,30.22,North,4,1.0,3.0,86,0.00,,,0.00,meteohub,2013-01-07 19:17:00,
2013-01-07 11:22:00,52.5,48.2,30.22,NNW,334,4.0,4.0,85,0.00,,,0.00,meteohub,2013-01-07 19:22:00,
2013-01-07 11:27:00,52.3,48.2,30.22,NNW,339,2.0,4.0,86,0.00,,,0.00,meteohub,2013-01-07 19:27:00,
2013-01-07 11:32:00,52.2,47.8,30.21,NNW,335,3.0,4.0,85,0.00,,,0.00,meteohub,2013-01-07 19:32:00,
2013-01-07 11:37:00,52.2,48.0,30.22,NNW,345,2.0,4.0,86,0.00,,,0.00,meteohub,2013-01-07 19:37:00,
2013-01-07 11:42:00,52.2,48.0,30.22,NNW,342,0.0,4.0,86,0.00,,,0.00,meteohub,2013-01-07 19:42:00,
2013-01-07 11:47:00,52.2,47.8,30.21,NNW,338,2.0,5.0,85,0.00,,,0.00,meteohub,2013-01-07 19:47:00,
2013-01-07 11:52:00,52.2,48.0,30.21,North,352,1.0,5.0,86,0.00,,,0.00,meteohub,2013-01-07 19:52:00,
2013-01-07 11:57:00,52.5,48.4,30.20,NNW,329,2.0,5.0,86,0.00,,,0.00,meteohub,2013-01-07 19:57:00,
2013-01-07 12:02:00,53.1,48.7,30.20,North,356,2.0,5.0,85,0.00,,,0.00,meteohub,2013-01-07 20:02:00,
2013-01-07 12:07:00,53.4,48.0,30.19,NNW,342,0.0,4.0,82,0.00,,,0.00,meteohub,2013-01-07 20:07:00,
2013-01-07 12:12:00,54.1,46.4,30.19,NNW,344,3.0,4.0,75,0.00,,,0.00,meteohub,2013-01-07 20:12:00,
2013-01-07 12:17:00,54.7,46.9,30.19,NNE,16,2.0,8.0,75,0.00,,,0.00,meteohub,2013-01-07 20:17:00,
2013-01-07 12:19:00,55.0,47.3,30.19,NNW,334,2.0,8.0,75,0.00,,,0.00,meteohub,2013-01-07 20:19:00,
2013-01-07 12:24:00,55.8,47.3,30.20,NNW,332,1.0,8.0,73,0.00,,,0.00,meteohub,2013-01-07 20:24:00,
2013-01-07 12:29:00,55.9,47.1,30.20,NNW,328,2.0,8.0,72,0.00,,,0.00,meteohub,2013-01-07 20:29:00,
2013-01-07 12:34:00,55.9,47.5,30.19,NNE,23,0.0,5.0,73,0.00,,,0.00,meteohub,2013-01-07 20:34:00,
2013-01-07 12:40:00,56.5,47.1,30.18,NNW,330,1.0,5.0,71,0.00,,,0.00,meteohub,2013-01-07 20:40:00,
2013-01-07 12:45:00,56.5,46.8,30.18,NNW,346,0.0,3.0,70,0.00,,,0.00,meteohub,2013-01-07 20:45:00,
2013-01-07 12:50:00,56.8,47.5,30.17,ENE,77,0.0,3.0,71,0.00,,,0.00,meteohub,2013-01-07 20:50:00,
2013-01-07 12:55:00,57.0,47.7,30.18,NNE,24,0.0,3.0,71,0.00,,,0.00,meteohub,2013-01-07 20:55:00,
2013-01-07 13:00:00,57.0,47.7,30.18,East,82,1.0,3.0,71,0.00,,,0.00,meteohub,2013-01-07 21:00:00,
2013-01-07 13:06:00,56.3,47.5,30.18,East,88,2.0,4.0,72,0.00,,,0.00,meteohub,2013-01-07 21:06:00,
2013-01-07 13:11:00,56.1,47.3,30.18,WNW,297,0.0,4.0,72,0.00,,,0.00,meteohub,2013-01-07 21:11:00,
2013-01-07 13:16:00,56.1,47.3,30.17,East,89,0.0,4.0,72,0.00,,,0.00,meteohub,2013-01-07 21:16:00,
2013-01-07 13:21:00,56.5,47.1,30.17,East,99,1.0,3.0,71,0.00,,,0.00,meteohub,2013-01-07 21:21:00,
2013-01-07 13:27:00,55.8,46.9,30.17,ENE,78,0.0,3.0,72,0.00,,,0.00,meteohub,2013-01-07 21:27:00,
2013-01-07 13:32:00,55.9,47.5,30.17,NNW,340,3.0,3.0,73,0.00,,,0.00,meteohub,2013-01-07 21:32:00,
2013-01-07 13:37:00,56.3,47.5,30.17,East,96,1.0,3.0,72,0.00,,,0.00,meteohub,2013-01-07 21:37:00,
2013-01-07 13:42:00,56.5,47.5,30.17,SSE,153,0.0,3.0,72,0.00,,,0.00,meteohub,2013-01-07 21:42:00,
2013-01-07 13:47:00,56.8,47.5,30.17,North,356,1.0,3.0,71,0.00,,,0.00,meteohub,2013-01-07 21:47:00,
2013-01-07 13:52:00,57.0,47.3,30.17,NNE,20,1.0,3.0,70,0.00,,,0.00,meteohub,2013-01-07 21:52:00,
2013-01-07 13:57:00,56.5,46.8,30.17,NNE,15,2.0,4.0,70,0.00,,,0.00,meteohub,2013-01-07 21:57:00,
2013-01-07 14:02:00,55.9,47.1,30.17,NNE,25,3.0,4.0,72,0.00,,,0.00,meteohub,2013-01-07 22:02:00,
2013-01-07 14:07:00,55.8,46.9,30.17,NE,53,1.0,4.0,72,0.00,,,0.00,meteohub,2013-01-07 22:07:00,
2013-01-07 14:13:00,55.8,46.9,30.17,NNW,334,0.0,4.0,72,0.00,,,0.00,meteohub,2013-01-07 22:13:00,
2013-01-07 14:18:00,55.9,47.5,30.17,NNE,27,0.0,4.0,73,0.00,,,0.00,meteohub,2013-01-07 22:18:00,
2013-01-07 14:24:00,56.3,47.8,30.17,NE,36,0.0,4.0,73,0.00,,,0.00,meteohub,2013-01-07 22:24:00,
2013-01-07 14:29:00,56.7,47.3,30.16,North,9,0.0,3.0,71,0.00,,,0.00,meteohub,2013-01-07 22:29:00,
2013-01-07 14:35:00,56.5,47.5,30.16,ESE,103,3.0,3.0,72,0.00,,,0.00,meteohub,2013-01-07 22:35:00,
2013-01-07 14:40:00,56.5,47.5,30.16,ESE,114,0.0,3.0,72,0.00,,,0.00,meteohub,2013-01-07 22:40:00,
2013-01-07 14:45:00,56.1,47.3,30.16,SE,144,0.0,3.0,72,0.00,,,0.00,meteohub,2013-01-07 22:45:00,
2013-01-07 14:51:00,56.1,47.3,30.16,SE,125,2.0,3.0,72,0.00,,,0.00,meteohub,2013-01-07 22:51:00,
2013-01-07 14:56:00,55.9,47.5,30.16,SE,126,0.0,3.0,73,0.00,,,0.00,meteohub,2013-01-07 22:56:00,
2013-01-07 15:02:00,55.8,47.3,30.16,ENE,74,2.0,4.0,73,0.00,,,0.00,meteohub,2013-01-07 23:02:00,
2013-01-07 15:07:00,55.4,46.6,30.16,East,96,1.0,5.0,72,0.00,,,0.00,meteohub,2013-01-07 23:07:00,
2013-01-07 15:12:00,55.4,46.9,30.16,East,94,1.0,5.0,73,0.00,,,0.00,meteohub,2013-01-07 23:12:00,
2013-01-07 15:17:00,55.6,47.5,30.16,East,94,0.0,5.0,74,0.00,,,0.00,meteohub,2013-01-07 23:17:00,
2013-01-07 15:22:00,55.8,47.7,30.16,NNW,338,1.0,3.0,74,0.00,,,0.00,meteohub,2013-01-07 23:22:00,
2013-01-07 15:27:00,55.6,48.2,30.16,NNW,334,0.0,3.0,76,0.00,,,0.00,meteohub,2013-01-07 23:27:00,
2013-01-07 15:32:00,55.2,47.8,30.16,NNW,340,2.0,3.0,76,0.00,,,0.00,meteohub,2013-01-07 23:32:00,
2013-01-07 15:37:00,55.0,48.4,30.16,NNW,340,2.0,3.0,78,0.00,,,0.00,meteohub,2013-01-07 23:37:00,
2013-01-07 15:42:00,54.7,48.4,30.16,NW,326,2.0,3.0,79,0.00,,,0.00,meteohub,2013-01-07 23:42:00,
2013-01-07 15:47:00,54.3,48.0,30.15,North,349,1.0,3.0,79,0.00,,,0.00,meteohub,2013-01-07 23:47:00,
2013-01-07 15:52:00,54.3,48.0,30.15,NNW,342,1.0,2.0,79,0.00,,,0.00,meteohub,2013-01-07 23:52:00,
2013-01-07 15:58:00,54.3,48.0,30.15,North,4,2.0,2.0,79,0.00,,,0.00,meteohub,2013-01-07 23:58:00,
2013-01-07 16:03:00,54.3,47.7,30.15,North,352,1.0,2.0,78,0.00,,,0.00,meteohub,2013-01-08 00:03:00,
2013-01-07 16:08:00,54.3,48.0,30.15,NNW,342,0.0,2.0,79,0.00,,,0.00,meteohub,2013-01-08 00:08:00,
2013-01-07 16:13:00,54.1,47.8,30.16,NNW,342,1.0,2.0,79,0.00,,,0.00,meteohub,2013-01-08 00:13:00,
2013-01-07 16:18:00,53.8,47.1,30.16,NNW,345,2.0,2.0,78,0.00,,,0.00,meteohub,2013-01-08 00:18:00,
2013-01-07 16:23:00,53.4,47.1,30.16,NNW,335,0.0,3.0,79,0.00,,,0.00,meteohub,2013-01-08 00:23:00,
2013-01-07 16:28:00,53.2,47.3,30.16,NNW,334,0.0,3.0,80,0.00,,,0.00,meteohub,2013-01-08 00:28:00,
2013-01-07 16:34:00,53.2,47.3,30.16,NNW,334,0.0,3.0,80,0.00,,,0.00,meteohub,2013-01-08 00:34:00,
2013-01-07 16:39:00,53.1,47.1,30.16,NNW,334,0.0,1.0,80,0.00,,,0.00,meteohub,2013-01-08 00:39:00,
2013-01-07 16:44:00,53.1,47.1,30.16,North,0,0.0,1.0,80,0.00,,,0.00,meteohub,2013-01-08 00:44:00,
2013-01-07 16:49:00,53.1,47.3,30.16,North,359,0.0,1.0,81,0.00,,,0.00,meteohub,2013-01-08 00:49:00,
2013-01-07 16:54:00,53.1,47.3,30.16,North,359,0.0,1.0,81,0.00,,,0.00,meteohub,2013-01-08 00:54:00,
2013-01-07 16:59:00,52.9,47.5,30.16,North,359,0.0,1.0,82,0.00,,,0.00,meteohub,2013-01-08 00:59:00,
2013-01-07 17:04:00,52.9,48.2,30.16,North,0,0.0,1.0,84,0.00,,,0.00,meteohub,2013-01-08 01:04:00,
2013-01-07 17:09:00,52.5,48.2,30.16,North,0,0.0,0.0,85,0.00,,,0.00,meteohub,2013-01-08 01:09:00,
2013-01-07 17:15:00,52.3,48.0,30.16,North,0,0.0,1.0,85,0.00,,,0.00,meteohub,2013-01-08 01:15:00,
2013-01-07 17:20:00,52.3,48.2,30.16,North,0,0.0,1.0,86,0.00,,,0.00,meteohub,2013-01-08 01:20:00,
2013-01-07 17:25:00,52.2,48.0,30.16,North,0,0.0,0.0,86,0.00,,,0.00,meteohub,2013-01-08 01:25:00,
2013-01-07 17:30:00,52.2,48.4,30.16,North,0,0.0,0.0,87,0.00,,,0.00,meteohub,2013-01-08 01:30:00,
2013-01-07 17:35:00,52.0,48.2,30.16,North,359,0.0,1.0,87,0.00,,,0.00,meteohub,2013-01-08 01:35:00,
2013-01-07 17:40:00,51.6,47.5,30.16,North,0,0.0,1.0,86,0.00,,,0.00,meteohub,2013-01-08 01:40:00,
2013-01-07 17:45:00,51.6,47.5,30.16,North,0,0.0,0.0,86,0.00,,,0.00,meteohub,2013-01-08 01:45:00,
2013-01-07 17:50:00,51.6,47.8,30.16,North,359,0.0,0.0,87,0.00,,,0.00,meteohub,2013-01-08 01:50:00,
2013-01-07 17:56:00,51.4,47.7,30.16,North,359,0.0,0.0,87,0.00,,,0.00,meteohub,2013-01-08 01:56:00,
2013-01-07 18:01:00,51.3,47.5,30.16,North,0,0.0,0.0,87,0.00,,,0.00,meteohub,2013-01-08 02:01:00,
2013-01-07 18:06:00,51.3,47.5,30.16,North,0,0.0,0.0,87,0.00,,,0.00,meteohub,2013-01-08 02:06:00,
2013-01-07 18:11:00,50.9,47.5,30.16,North,359,0.0,0.0,88,0.00,,,0.00,meteohub,2013-01-08 02:11:00,
2013-01-07 18:16:00,50.7,47.3,30.15,North,0,0.0,0.0,88,0.00,,,0.00,meteohub,2013-01-08 02:16:00,
2013-01-07 18:21:00,50.7,47.3,30.15,North,359,0.0,0.0,88,0.00,,,0.00,meteohub,2013-01-08 02:21:00,
2013-01-07 18:26:00,50.5,47.1,30.15,North,0,0.0,0.0,88,0.00,,,0.00,meteohub,2013-01-08 02:26:00,
2013-01-07 18:31:00,50.5,47.1,30.15,North,0,0.0,0.0,88,0.00,,,0.00,meteohub,2013-01-08 02:31:00,
2013-01-07 18:37:00,50.5,47.1,30.15,North,0,0.0,0.0,88,0.00,,,0.00,meteohub,2013-01-08 02:37:00,
2013-01-07 18:42:00,50.4,47.3,30.15,North,0,0.0,0.0,89,0.00,,,0.00,meteohub,2013-01-08 02:42:00,
2013-01-07 18:47:00,50.4,47.3,30.15,NNW,347,1.0,0.0,89,0.00,,,0.00,meteohub,2013-01-08 02:47:00,
2013-01-07 18:52:00,50.4,46.9,30.15,NNW,346,0.0,1.0,88,0.00,,,0.00,meteohub,2013-01-08 02:52:00,
2013-01-07 18:57:00,50.2,47.1,30.15,NNW,345,0.0,1.0,89,0.00,,,0.00,meteohub,2013-01-08 02:57:00,
2013-01-07 19:02:00,50.2,47.1,30.15,NNW,335,0.0,1.0,89,0.00,,,0.00,meteohub,2013-01-08 03:02:00,
2013-01-07 19:07:00,50.2,47.1,30.15,North,1,1.0,1.0,89,0.00,,,0.00,meteohub,2013-01-08 03:07:00,
2013-01-07 19:12:00,49.8,46.8,30.15,NNW,344,0.0,1.0,89,0.00,,,0.00,meteohub,2013-01-08 03:12:00,
2013-01-07 19:17:00,49.6,46.8,30.15,NNW,342,0.0,1.0,90,0.00,,,0.00,meteohub,2013-01-08 03:17:00,
2013-01-07 19:22:00,49.6,46.8,30.15,NNW,342,0.0,1.0,90,0.00,,,0.00,meteohub,2013-01-08 03:22:00,
2013-01-07 19:27:00,49.5,46.6,30.15,NNW,342,0.0,1.0,90,0.00,,,0.00,meteohub,2013-01-08 03:27:00,
2013-01-07 19:32:00,49.5,46.6,30.16,NNW,342,0.0,1.0,90,0.00,,,0.00,meteohub,2013-01-08 03:32:00,
2013-01-07 19:37:00,49.3,46.8,30.16,NNW,342,0.0,0.0,91,0.00,,,0.00,meteohub,2013-01-08 03:37:00,
2013-01-07 19:42:00,49.3,46.8,30.16,NNW,343,0.0,0.0,91,0.00,,,0.00,meteohub,2013-01-08 03:42:00,
2013-01-07 19:47:00,49.1,46.6,30.16,NNW,342,0.0,0.0,91,0.00,,,0.00,meteohub,2013-01-08 03:47:00,
2013-01-07 19:52:00,48.9,46.4,30.16,NNW,342,0.0,0.0,91,0.00,,,0.00,meteohub,2013-01-08 03:52:00,
2013-01-07 19:57:00,48.9,46.4,30.16,NNW,342,0.0,0.0,91,0.00,,,0.00,meteohub,2013-01-08 03:57:00,
2013-01-07 20:02:00,48.7,46.2,30.16,NNW,342,0.0,0.0,91,0.00,,,0.00,meteohub,2013-01-08 04:02:00,
2013-01-07 20:07:00,48.7,46.2,30.16,NNW,342,0.0,1.0,91,0.00,,,0.00,meteohub,2013-01-08 04:07:00,
2013-01-07 20:12:00,48.6,46.4,30.16,NNW,342,0.0,1.0,92,0.00,,,0.00,meteohub,2013-01-08 04:12:00,
2013-01-07 20:17:00,48.6,46.4,30.16,NNW,343,0.0,1.0,92,0.00,,,0.00,meteohub,2013-01-08 04:17:00,
2013-01-07 20:22:00,48.6,46.4,30.16,NNW,342,0.0,1.0,92,0.00,,,0.00,meteohub,2013-01-08 04:22:00,
2013-01-07 20:27:00,48.4,46.2,30.16,NNW,342,1.0,1.0,92,0.00,,,0.00,meteohub,2013-01-08 04:27:00,
2013-01-07 20:32:00,48.2,46.0,30.16,NNW,342,0.0,1.0,92,0.00,,,0.00,meteohub,2013-01-08 04:32:00,
2013-01-07 20:37:00,48.4,46.4,30.16,NNW,342,0.0,1.0,93,0.00,,,0.00,meteohub,2013-01-08 04:37:00,
2013-01-07 20:42:00,48.4,46.4,30.16,NNW,328,0.0,1.0,93,0.00,,,0.00,meteohub,2013-01-08 04:42:00,
2013-01-07 20:47:00,48.6,46.6,30.17,NNW,328,0.0,1.0,93,0.00,,,0.00,meteohub,2013-01-08 04:47:00,
2013-01-07 20:52:00,48.6,46.6,30.17,NNW,328,0.0,1.0,93,0.00,,,0.00,meteohub,2013-01-08 04:52:00,
2013-01-07 20:57:00,48.6,46.4,30.17,NNW,328,0.0,1.0,92,0.00,,,0.00,meteohub,2013-01-08 04:57:00,
2013-01-07 21:00:00,48.6,46.6,30.17,NNW,328,0.0,1.0,93,0.00,,,0.00,meteohub,2013-01-08 05:00:00,
2013-01-07 21:02:00,48.6,46.6,30.17,NNW,328,0.0,1.0,93,0.00,,,0.00,meteohub,2013-01-08 05:02:00,
2013-01-07 21:03:00,48.6,46.4,30.17,NNW,328,0.0,1.0,92,0.00,,,0.00,meteohub,2013-01-08 05:03:00,
2013-01-07 21:09:00,48.2,46.0,30.17,NNW,328,0.0,1.0,92,0.00,,,0.00,meteohub,2013-01-08 05:09:00,
2013-01-07 21:14:00,48.0,46.0,30.17,NNW,328,0.0,1.0,93,0.00,,,0.00,meteohub,2013-01-08 05:14:00,
2013-01-07 21:19:00,47.8,45.9,30.17,NNW,328,0.0,0.0,93,0.00,,,0.00,meteohub,2013-01-08 05:19:00,
2013-01-07 21:24:00,47.8,46.2,30.16,NNW,328,0.0,0.0,94,0.00,,,0.00,meteohub,2013-01-08 05:24:00,
2013-01-07 21:29:00,47.8,46.2,30.16,NNW,328,0.0,0.0,94,0.00,,,0.00,meteohub,2013-01-08 05:29:00,
2013-01-07 21:34:00,47.8,45.9,30.16,NNW,328,0.0,1.0,93,0.00,,,0.00,meteohub,2013-01-08 05:34:00,
2013-01-07 21:39:00,47.8,46.2,30.17,NNW,328,0.0,1.0,94,0.00,,,0.00,meteohub,2013-01-08 05:39:00,
2013-01-07 21:44:00,48.0,46.0,30.16,NNW,327,0.0,1.0,93,0.00,,,0.00,meteohub,2013-01-08 05:44:00,
2013-01-07 21:50:00,47.8,45.9,30.16,NNW,328,0.0,1.0,93,0.00,,,0.00,meteohub,2013-01-08 05:50:00,
2013-01-07 21:55:00,47.8,46.2,30.16,NNW,328,0.0,0.0,94,0.00,,,0.00,meteohub,2013-01-08 05:55:00,
2013-01-07 22:00:00,48.0,46.0,30.16,ESE,105,0.0,2.0,93,0.00,,,0.00,meteohub,2013-01-08 06:00:00,
2013-01-07 22:05:00,48.2,46.2,30.16,SE,125,0.0,2.0,93,0.00,,,0.00,meteohub,2013-01-08 06:05:00,
2013-01-07 22:10:00,48.4,46.4,30.16,SE,139,1.0,2.0,93,0.00,,,0.00,meteohub,2013-01-08 06:10:00,
2013-01-07 22:15:00,48.9,46.8,30.16,ESE,120,0.0,2.0,92,0.00,,,0.00,meteohub,2013-01-08 06:15:00,
2013-01-07 22:20:00,49.3,46.8,30.16,SSE,148,1.0,2.0,91,0.00,,,0.00,meteohub,2013-01-08 06:20:00,
2013-01-07 22:25:00,49.3,46.8,30.17,SSE,151,0.0,2.0,91,0.00,,,0.00,meteohub,2013-01-08 06:25:00,
2013-01-07 22:31:00,48.9,46.4,30.17,SSE,150,0.0,1.0,91,0.00,,,0.00,meteohub,2013-01-08 06:31:00,
2013-01-07 22:36:00,48.7,46.2,30.17,SSE,151,0.0,1.0,91,0.00,,,0.00,meteohub,2013-01-08 06:36:00,
2013-01-07 22:41:00,48.6,46.4,30.17,SSE,150,0.0,0.0,92,0.00,,,0.00,meteohub,2013-01-08 06:41:00,
2013-01-07 22:46:00,48.4,46.2,30.17,SSE,151,0.0,0.0,92,0.00,,,0.00,meteohub,2013-01-08 06:46:00,
2013-01-07 22:51:00,48.2,46.2,30.17,SSE,150,0.0,0.0,93,0.00,,,0.00,meteohub,2013-01-08 06:51:00,
2013-01-07 22:56:00,47.8,45.7,30.17,North,356,0.0,2.0,92,0.00,,,0.00,meteohub,2013-01-08 06:56:00,
2013-01-07 23:01:00,47.5,45.5,30.17,North,356,0.0,2.0,93,0.00,,,0.00,meteohub,2013-01-08 07:01:00,
2013-01-07 23:06:00,47.8,46.4,30.17,North,356,0.0,2.0,95,0.00,,,0.00,meteohub,2013-01-08 07:06:00,
2013-01-07 23:11:00,47.8,45.9,30.17,NE,44,0.0,1.0,93,0.00,,,0.00,meteohub,2013-01-08 07:11:00,
2013-01-07 23:17:00,48.2,46.6,30.17,NNE,23,0.0,1.0,94,0.00,,,0.00,meteohub,2013-01-08 07:17:00,
2013-01-07 23:22:00,48.6,46.6,30.17,SW,221,0.0,1.0,93,0.00,,,0.00,meteohub,2013-01-08 07:22:00,
2013-01-07 23:27:00,49.1,46.6,30.17,SSW,212,0.0,1.0,91,0.00,,,0.00,meteohub,2013-01-08 07:27:00,
2013-01-07 23:32:00,49.1,46.2,30.17,SSW,212,0.0,2.0,90,0.00,,,0.00,meteohub,2013-01-08 07:32:00,
2013-01-07 23:37:00,48.7,46.2,30.17,SSW,212,0.0,2.0,91,0.00,,,0.00,meteohub,2013-01-08 07:37:00,
2013-01-07 23:42:00,48.2,45.7,30.17,NW,309,0.0,1.0,91,0.00,,,0.00,meteohub,2013-01-08 07:42:00,
2013-01-07 23:47:00,47.7,45.5,30.17,North,5,0.0,2.0,92,0.00,,,0.00,meteohub,2013-01-08 07:47:00,
2013-01-07 23:52:00,47.7,45.7,30.17,North,6,0.0,2.0,93,0.00,,,0.00,meteohub,2013-01-08 07:52:00,
2013-01-07 23:57:00,47.5,45.5,30.17,NNW,328,0.0,2.0,93,0.00,,,0.00,meteohub,2013-01-08 07:57:00,